"startDT [UTC]","vpos","CH4 [ppm]","stdev(CH4) [ppm]","CO2 [ppm]","stdev(CO2) [ppm]","H2O_reported [%]","stdev(H2O_reported)","CavityPressure [torr]","CavityTemp [C]","OutletValve","CH4_dry [ppm]","CO2_dry [ppm]","DasTemp [C]","EtalonTemp [C]","WarmBoxTemp [C]","MPVPosition","T_ECpre [C]","T_EC1 [C]","T_EC2 [C]","p_inlet [hPa]","p_in [hPa]","p_out [hPa]","T_inlet [C]","RH_inlet [%]","dwpt_inlet [C]","T_vent [C]","RH_vent [%]","dwpt_vent [C]","flow_vent [l min-1]","flow_inlet [l min-1]","dwpt_sample [C]","T_room [C]"
2016-12-18 00:00:00,0.0,1.97223,0.00036,414.451,0.306,0.1516,0.0019,139.998,45.000,31699.66716,1.97518,415.194,38.048,45.071,45.001,0.00,0.06,-272.88,-272.92,-10,531,-942,23.1,4.1,-20.9,23.5,4.1,-20.7,0.42,1.78,-16.1,29.7
2016-12-18 00:01:00,0.0,1.97240,0.00026,414.644,0.150,0.1516,0.0016,140.001,45.000,31696.80646,1.97535,415.405,38.018,45.071,45.001,0.00,0.07,-272.88,-272.90,-9,531,-942,23.1,4.1,-20.8,23.5,4.1,-20.7,0.42,1.99,-16.1,29.7
2016-12-18 00:02:00,0.0,1.97231,0.00032,414.595,0.078,0.1511,0.0014,139.998,45.000,31697.57126,1.97523,415.351,38.000,45.071,45.001,0.00,0.07,-272.88,-272.91,-9,532,-942,23.1,4.1,-20.8,23.5,4.1,-20.6,0.42,1.82,-16.1,29.7
2016-12-18 00:03:00,0.0,1.97254,0.00034,415.147,0.325,0.1509,0.0016,139.997,45.000,31697.64581,1.97548,415.885,37.994,45.071,45.001,0.00,0.06,-272.88,-272.92,-10,531,-942,23.1,4.1,-20.8,23.4,4.1,-20.6,0.42,1.72,-16.1,29.7
2016-12-18 00:04:00,0.0,1.97232,0.00038,415.508,0.192,0.1506,0.0023,139.997,45.000,31698.82502,1.97527,416.268,37.965,45.071,45.001,0.00,0.07,-272.88,-272.92,-9,532,-942,23.0,4.1,-20.9,23.5,4.1,-20.7,0.42,1.96,-16.1,29.7
2016-12-18 00:05:00,0.0,1.97228,0.00042,415.408,0.254,0.1514,0.0014,140.000,45.000,31701.10600,1.97524,416.167,37.954,45.071,45.001,0.00,0.07,-272.88,-272.91,-10,532,-942,23.0,4.1,-20.8,23.5,4.1,-20.7,0.42,1.89,-16.1,29.7
2016-12-18 00:06:00,0.0,1.97218,0.00049,415.081,0.190,0.1516,0.0017,139.998,45.000,31702.33961,1.97512,415.841,37.986,45.071,45.001,0.00,0.07,-272.88,-272.92,-9,531,-942,23.0,4.1,-20.8,23.5,4.1,-20.6,0.42,1.70,-16.1,29.8
2016-12-18 00:07:00,0.0,1.97198,0.00030,415.203,0.214,0.1516,0.0017,140.000,45.000,31702.87536,1.97496,415.971,38.020,45.071,45.000,0.00,0.07,-272.88,-272.92,-9,531,-942,23.0,4.1,-20.9,23.5,4.1,-20.6,0.43,1.91,-16.1,29.8
2016-12-18 00:08:00,0.0,1.97197,0.00035,414.963,0.261,0.1522,0.0017,140.000,45.000,31700.91073,1.97493,415.720,38.063,45.071,45.000,0.00,0.07,-272.88,-272.92,-10,531,-942,23.0,4.1,-20.8,23.5,4.1,-20.6,0.42,1.95,-16.1,29.8
2016-12-18 00:09:00,0.0,1.97192,0.00035,415.604,0.312,0.1525,0.0016,139.999,45.000,31701.71000,1.97488,416.352,38.071,45.070,44.999,0.00,0.07,-272.88,-272.92,-9,531,-942,23.0,4.1,-20.8,23.5,4.1,-20.6,0.42,1.72,-16.1,29.8
2016-12-18 00:10:00,0.0,1.97168,0.00036,415.279,0.318,0.1524,0.0017,139.999,45.000,31702.63607,1.97462,416.066,38.080,45.070,44.999,0.00,0.07,-272.88,-272.92,-9,532,-942,23.0,4.2,-20.7,23.5,4.1,-20.6,0.42,1.85,-16.1,29.8
2016-12-18 00:11:00,0.0,1.97181,0.00042,414.890,0.335,0.1522,0.0022,139.997,45.000,31701.50633,1.97477,415.638,38.124,45.070,44.999,0.00,0.07,-272.89,-272.90,-10,531,-942,23.0,4.2,-20.7,23.5,4.1,-20.5,0.42,1.99,-16.1,29.8
2016-12-18 00:12:00,0.0,1.97185,0.00046,415.403,0.156,0.1535,0.0015,139.997,45.000,31702.09558,1.97486,416.173,38.126,45.070,44.999,0.00,0.07,-272.88,-272.91,-9,531,-942,23.1,4.2,-20.7,23.5,4.1,-20.5,0.42,1.75,-16.1,29.8
2016-12-18 00:13:00,0.0,1.97166,0.00036,414.942,0.237,0.1529,0.0019,140.002,45.000,31704.99143,1.97463,415.709,38.125,45.070,45.000,0.00,0.07,-272.88,-272.93,-10,532,-942,23.1,4.2,-20.7,23.5,4.1,-20.5,0.42,1.78,-16.1,29.7
2016-12-18 00:14:00,0.0,1.97163,0.00042,415.116,0.251,0.1535,0.0017,140.000,45.000,31706.44460,1.97465,415.893,38.125,45.070,45.000,0.00,0.07,-272.88,-272.91,-10,531,-942,23.1,4.2,-20.7,23.5,4.2,-20.5,0.42,1.99,-16.1,29.7
2016-12-18 00:15:00,0.0,1.97117,0.00031,414.525,0.176,0.1529,0.0016,139.998,45.000,31705.25989,1.97414,415.297,38.094,45.070,45.000,0.00,0.07,-272.87,-272.91,-9,532,-942,23.1,4.2,-20.7,23.5,4.1,-20.5,0.42,1.81,-16.1,29.7
2016-12-18 00:16:00,0.0,1.97129,0.00034,413.799,0.353,0.1535,0.0020,140.001,45.000,31706.04089,1.97426,414.581,38.063,45.071,45.000,0.00,0.06,-272.88,-272.92,-10,532,-942,23.1,4.2,-20.7,23.5,4.1,-20.5,0.42,1.73,-16.1,29.8
2016-12-18 00:17:00,0.0,1.97133,0.00031,413.113,0.126,0.1533,0.0015,140.002,45.000,31706.00782,1.97431,413.882,38.062,45.071,45.000,0.00,0.07,-272.88,-272.92,-9,531,-942,23.1,4.2,-20.7,23.5,4.1,-20.5,0.42,1.97,-16.1,29.8
2016-12-18 00:18:00,0.0,1.97130,0.00031,413.247,0.233,0.1541,0.0019,140.001,45.000,31705.62955,1.97431,414.001,38.063,45.071,45.001,0.00,0.07,-272.88,-272.91,-9,532,-942,23.1,4.2,-20.7,23.5,4.1,-20.5,0.42,1.87,-16.1,29.8
2016-12-18 00:19:00,0.0,1.97134,0.00036,413.780,0.138,0.1531,0.0012,140.000,45.000,31706.03735,1.97433,414.544,38.062,45.071,45.000,0.00,0.07,-272.87,-272.92,-10,532,-942,23.1,4.2,-20.7,23.5,4.1,-20.5,0.42,1.71,-16.1,29.7
2016-12-18 00:20:00,0.0,1.97142,0.00036,413.961,0.106,0.1533,0.0018,139.999,45.000,31703.17424,1.97438,414.726,38.063,45.071,45.000,0.00,0.31,-270.97,-272.58,-9,531,-942,23.1,4.2,-20.7,23.5,4.1,-20.5,0.56,2.05,-21.2,29.7
2016-12-18 00:21:00,0.0,1.97137,0.00035,413.887,0.081,0.1536,0.0019,140.000,45.000,31703.28176,1.97437,414.656,38.083,45.071,45.000,0.00,0.07,-272.89,-272.91,-9,532,-942,23.1,4.2,-20.7,23.5,4.1,-20.5,0.42,1.93,-16.1,29.7
2016-12-18 00:22:00,0.0,1.97122,0.00040,413.931,0.121,0.1528,0.0019,139.997,45.000,31702.56019,1.97419,414.689,38.121,45.071,45.000,0.00,0.07,-272.88,-272.92,-10,531,-942,23.1,4.2,-20.7,23.5,4.1,-20.5,0.42,1.70,-16.1,29.8
2016-12-18 00:23:00,0.0,1.97134,0.00032,414.582,0.178,0.1540,0.0014,139.999,45.000,31704.58524,1.97434,415.341,38.144,45.070,44.999,0.00,0.07,-272.88,-272.92,-9,532,-942,23.1,4.2,-20.7,23.5,4.1,-20.5,0.43,1.87,-16.1,29.8
2016-12-18 00:24:00,0.0,1.97125,0.00027,414.788,0.119,0.1542,0.0017,140.000,45.000,31706.64887,1.97423,415.553,38.185,45.070,44.999,0.00,0.07,-272.89,-272.92,-10,532,-943,23.1,4.2,-20.7,23.5,4.2,-20.4,0.42,1.98,-16.1,29.7
2016-12-18 00:25:00,0.0,1.97131,0.00039,415.551,0.486,0.1541,0.0015,140.002,45.000,31706.61302,1.97433,416.328,38.184,45.070,44.999,0.00,0.07,-272.88,-272.91,-9,531,-942,23.1,4.2,-20.6,23.5,4.2,-20.4,0.42,1.73,-16.1,29.7
2016-12-18 00:26:00,0.0,1.97110,0.00040,415.081,0.298,0.1541,0.0017,140.002,45.000,31707.11425,1.97411,415.853,38.188,45.070,44.999,0.00,0.06,-272.89,-272.92,-9,532,-943,23.1,4.2,-20.6,23.5,4.2,-20.4,0.42,1.81,-16.1,29.7
2016-12-18 00:27:00,0.0,1.97099,0.00033,414.863,0.071,0.1556,0.0017,140.000,45.000,31709.49096,1.97400,415.642,38.188,45.070,44.999,0.00,0.06,-272.89,-272.92,-10,532,-943,23.1,4.2,-20.6,23.5,4.2,-20.4,0.42,2.00,-16.1,29.7
2016-12-18 00:28:00,0.0,1.97086,0.00040,414.385,0.220,0.1548,0.0015,139.998,45.000,31709.53533,1.97388,415.171,38.187,45.070,45.000,0.00,0.07,-272.88,-272.91,-9,531,-942,23.1,4.2,-20.6,23.5,4.2,-20.4,0.41,1.77,-16.0,29.8
2016-12-18 00:29:00,0.0,1.97094,0.00035,413.603,0.231,0.1542,0.0016,139.998,45.000,31711.69302,1.97395,414.385,38.185,45.070,45.000,0.00,0.07,-272.87,-272.92,-9,532,-942,23.1,4.2,-20.6,23.5,4.2,-20.4,0.42,1.75,-16.0,29.7
2016-12-18 00:30:00,0.0,1.97130,0.00041,413.273,0.148,0.1543,0.0016,140.001,45.000,31709.17821,1.97429,414.039,38.177,45.071,45.000,0.00,0.06,-272.88,-272.92,-10,531,-943,23.2,4.2,-20.7,23.5,4.2,-20.4,0.42,1.98,-16.1,29.8
2016-12-18 00:31:00,0.0,1.97136,0.00030,413.492,0.103,0.1540,0.0016,140.002,45.000,31710.13575,1.97437,414.260,38.150,45.071,45.001,0.00,0.07,-272.88,-272.91,-9,532,-943,23.2,4.2,-20.7,23.6,4.2,-20.4,0.42,1.83,-16.0,29.8
2016-12-18 00:32:00,0.0,1.97135,0.00034,413.715,0.097,0.1545,0.0016,140.001,45.000,31710.07817,1.97435,414.483,38.127,45.071,45.001,0.00,0.07,-272.87,-272.91,-10,532,-943,23.2,4.2,-20.7,23.6,4.2,-20.4,0.42,1.72,-16.0,29.8
2016-12-18 00:33:00,0.0,1.97134,0.00038,413.634,0.124,0.1543,0.0018,139.999,45.000,31708.70515,1.97435,414.407,38.120,45.071,45.001,0.00,0.06,-272.89,-272.93,-9,532,-943,23.2,4.2,-20.6,23.6,4.2,-20.4,0.42,1.96,-16.0,29.8
2016-12-18 00:34:00,0.0,1.97112,0.00042,413.854,0.128,0.1555,0.0017,139.999,45.000,31710.07283,1.97413,414.622,38.087,45.071,45.001,0.00,0.07,-272.88,-272.92,-9,532,-943,23.1,4.2,-20.7,23.6,4.2,-20.4,0.42,1.89,-16.0,29.8
2016-12-18 00:35:00,0.0,1.97121,0.00034,413.960,0.079,0.1547,0.0017,139.999,45.000,31708.85157,1.97422,414.733,38.066,45.071,45.001,0.00,0.07,-272.88,-272.91,-10,532,-943,23.1,4.2,-20.6,23.6,4.2,-20.4,0.42,1.70,-16.0,29.8
2016-12-18 00:36:00,0.0,1.97109,0.00044,413.978,0.105,0.1559,0.0018,139.999,45.000,31709.35623,1.97412,414.760,38.067,45.071,45.001,0.00,0.06,-272.89,-272.92,-9,532,-943,23.1,4.2,-20.6,23.5,4.2,-20.4,0.42,1.90,-16.0,29.8
2016-12-18 00:37:00,0.0,1.97093,0.00041,414.022,0.204,0.1553,0.0016,140.002,45.000,31711.67773,1.97397,414.792,38.093,45.071,45.000,0.00,0.07,-272.89,-272.92,-9,532,-943,23.1,4.2,-20.6,23.5,4.2,-20.4,0.41,1.94,-16.0,29.8
2016-12-18 00:38:00,0.0,1.97076,0.00032,414.106,0.136,0.1559,0.0019,140.001,45.000,31711.74419,1.97381,414.882,38.115,45.071,45.000,0.00,0.07,-272.87,-272.91,-10,532,-943,23.1,4.2,-20.6,23.5,4.2,-20.4,0.41,1.70,-16.0,29.8
2016-12-18 00:39:00,0.0,1.97105,0.00042,414.343,0.250,0.1552,0.0020,140.001,45.000,31710.20731,1.97407,415.125,38.143,45.071,45.000,0.00,0.06,-272.88,-272.92,-9,532,-943,23.1,4.2,-20.5,23.5,4.2,-20.4,0.42,1.84,-16.0,29.8
2016-12-18 00:40:00,0.0,1.97100,0.00042,414.066,0.071,0.1558,0.0012,139.999,45.000,31709.68659,1.97402,414.843,38.158,45.070,44.999,0.00,0.06,-272.89,-272.92,-10,532,-943,23.1,4.2,-20.6,23.5,4.2,-20.4,0.41,1.97,-16.0,29.8
2016-12-18 00:41:00,0.0,1.97083,0.00029,414.420,0.197,0.1553,0.0018,140.002,45.000,31712.90956,1.97384,415.196,38.155,45.070,44.999,0.00,0.07,-272.88,-272.91,-10,531,-943,23.1,4.2,-20.6,23.5,4.2,-20.3,0.41,1.73,-16.0,29.8
2016-12-18 00:42:00,0.0,1.97090,0.00041,413.937,0.117,0.1554,0.0015,139.999,45.000,31710.43052,1.97391,414.718,38.145,45.070,44.999,0.00,0.07,-272.87,-272.91,-9,532,-943,23.1,4.2,-20.6,23.5,4.2,-20.3,0.42,1.79,-16.0,29.8
2016-12-18 00:43:00,0.0,1.97103,0.00032,413.490,0.142,0.1557,0.0017,140.001,45.000,31711.21697,1.97405,414.274,38.165,45.070,45.000,0.00,0.06,-272.89,-272.92,-10,532,-943,23.1,4.2,-20.6,23.5,4.2,-20.3,0.42,1.98,-16.0,29.8
2016-12-18 00:44:00,0.0,1.97095,0.00036,413.472,0.159,0.1557,0.0015,139.999,45.000,31712.52350,1.97401,414.250,38.152,45.070,45.000,0.00,0.07,-272.88,-272.92,-9,531,-943,23.1,4.2,-20.6,23.5,4.2,-20.3,0.41,1.78,-16.0,29.8
2016-12-18 00:45:00,0.0,1.97106,0.00035,413.383,0.066,0.1553,0.0015,140.001,45.000,31712.55274,1.97406,414.155,38.166,45.070,45.000,0.00,0.07,-272.87,-272.91,-9,532,-943,23.1,4.2,-20.6,23.6,4.2,-20.3,0.42,1.73,-16.0,29.8
2016-12-18 00:46:00,0.0,1.97121,0.00037,413.351,0.117,0.1555,0.0017,140.003,45.000,31710.18315,1.97420,414.130,38.154,45.070,45.000,0.00,0.07,-272.88,-272.92,-10,532,-943,23.2,4.2,-20.6,23.6,4.2,-20.3,0.42,1.96,-16.0,29.8
2016-12-18 00:47:00,0.0,1.97125,0.00030,413.231,0.088,0.1559,0.0013,139.999,45.000,31710.40098,1.97429,414.008,38.137,45.071,45.000,0.00,0.07,-272.89,-272.92,-9,532,-943,23.2,4.2,-20.6,23.6,4.2,-20.3,0.41,1.84,-16.0,29.8
2016-12-18 00:48:00,0.0,1.97156,0.00041,413.148,0.065,0.1558,0.0017,139.998,45.000,31708.85268,1.97459,413.928,38.125,45.071,45.001,0.00,0.07,-272.87,-272.92,-9,532,-943,23.2,4.2,-20.6,23.6,4.2,-20.3,0.41,1.70,-16.0,29.8
2016-12-18 00:49:00,0.0,1.97156,0.00041,412.866,0.131,0.1557,0.0022,139.999,45.000,31707.43158,1.97459,413.642,38.165,45.071,45.000,0.00,0.07,-272.88,-272.92,-10,532,-943,23.2,4.2,-20.6,23.6,4.2,-20.3,0.42,1.93,-16.0,29.8
2016-12-18 00:50:00,0.0,1.97150,0.00037,413.459,0.201,0.1553,0.0017,140.000,45.000,31707.63463,1.97453,414.219,38.186,45.071,45.000,0.00,0.06,-272.89,-272.92,-9,532,-943,23.1,4.2,-20.6,23.6,4.2,-20.4,0.41,1.91,-16.0,29.8
2016-12-18 00:51:00,0.0,1.97145,0.00044,413.748,0.185,0.1550,0.0020,140.001,45.000,31708.22742,1.97446,414.522,38.190,45.070,45.000,0.00,0.07,-272.88,-272.91,-10,532,-943,23.1,4.2,-20.6,23.6,4.2,-20.4,0.41,1.70,-16.0,29.8
2016-12-18 00:52:00,0.0,1.97141,0.00033,414.094,0.240,0.1566,0.0017,139.998,45.000,31709.73361,1.97445,414.873,38.191,45.070,45.000,0.00,0.07,-272.88,-272.91,-9,532,-943,23.1,4.2,-20.6,23.6,4.2,-20.3,0.42,1.88,-16.0,29.8
2016-12-18 00:53:00,0.0,1.97119,0.00031,414.261,0.249,0.1559,0.0019,140.000,45.000,31711.53740,1.97424,415.033,38.188,45.070,45.000,0.00,0.07,-272.89,-272.92,-9,532,-943,23.1,4.2,-20.6,23.6,4.2,-20.3,0.42,1.96,-16.0,29.8
2016-12-18 00:54:00,0.0,1.97134,0.00029,414.782,0.350,0.1554,0.0020,140.000,45.000,31710.84089,1.97435,415.541,38.198,45.070,45.000,0.00,0.07,-272.88,-272.92,-10,532,-943,23.1,4.2,-20.6,23.6,4.2,-20.3,0.41,1.73,-16.0,29.8
2016-12-18 00:55:00,0.0,1.97123,0.00032,415.483,0.068,0.1557,0.0016,139.999,45.000,31710.82633,1.97426,416.264,38.229,45.070,45.000,0.00,0.07,-272.87,-272.91,-9,532,-943,23.1,4.2,-20.6,23.6,4.2,-20.3,0.42,1.80,-16.0,29.8
2016-12-18 00:56:00,0.0,1.97132,0.00044,415.609,0.206,0.1558,0.0014,140.000,45.000,31711.91443,1.97436,416.383,38.236,45.070,44.999,0.00,0.07,-272.88,-272.91,-9,532,-943,23.1,4.2,-20.6,23.6,4.2,-20.3,0.41,1.98,-16.0,29.8
2016-12-18 00:57:00,0.0,1.97136,0.00038,416.004,0.194,0.1557,0.0021,140.000,45.000,31711.69805,1.97439,416.779,38.250,45.070,44.999,0.00,0.07,-272.89,-272.92,-10,532,-943,23.1,4.2,-20.6,23.6,4.2,-20.3,0.41,1.76,-16.0,29.8
2016-12-18 00:58:00,0.0,1.97153,0.00039,416.295,0.132,0.1554,0.0016,140.000,45.000,31710.24374,1.97455,417.072,38.243,45.070,45.000,0.00,0.07,-272.87,-272.92,-9,532,-943,23.2,4.2,-20.6,23.6,4.2,-20.3,0.41,1.74,-16.0,29.9
2016-12-18 00:59:00,0.0,1.97146,0.00036,416.517,0.195,0.1563,0.0017,140.000,45.000,31709.02326,1.97448,417.300,38.239,45.070,45.000,0.00,0.07,-272.88,-272.92,-10,532,-943,23.2,4.2,-20.6,23.6,4.2,-20.3,0.41,1.97,-16.0,29.8
2016-12-18 01:00:00,0.0,1.97134,0.00025,416.247,0.278,0.1559,0.0018,139.999,45.000,31710.02639,1.97440,417.045,38.224,45.070,45.000,0.00,0.07,-272.89,-272.92,-10,532,-943,23.2,4.2,-20.6,23.6,4.2,-20.3,0.41,1.84,-16.0,29.8
2016-12-18 01:01:00,0.0,1.97117,0.00039,415.147,0.325,0.1562,0.0020,140.001,45.000,31710.85567,1.97423,415.934,38.203,45.071,45.000,0.00,0.07,-272.88,-272.92,-9,532,-943,23.2,4.2,-20.6,23.6,4.2,-20.3,0.42,1.71,-16.0,29.8
2016-12-18 01:02:00,0.0,1.97124,0.00031,414.540,0.438,0.1571,0.0018,140.002,45.000,31712.99537,1.97429,415.352,38.211,45.071,45.001,0.00,0.07,-272.88,-272.91,-10,532,-943,23.2,4.2,-20.6,23.6,4.2,-20.3,0.42,1.95,-15.9,29.8
2016-12-18 01:03:00,0.0,1.97127,0.00039,413.826,0.201,0.1564,0.0020,139.997,45.000,31711.16168,1.97429,414.603,38.191,45.071,45.001,0.00,0.07,-272.89,-272.92,-9,532,-943,23.2,4.2,-20.5,23.6,4.2,-20.3,0.41,1.90,-16.0,29.8
2016-12-18 01:04:00,0.0,1.97156,0.00033,414.323,0.268,0.1558,0.0018,140.002,45.000,31711.99658,1.97459,415.101,38.188,45.071,45.001,0.00,0.07,-272.88,-272.93,-9,532,-943,23.2,4.2,-20.5,23.6,4.2,-20.3,0.41,1.70,-16.0,29.8
2016-12-18 01:05:00,0.0,1.97139,0.00037,414.402,0.262,0.1566,0.0014,140.000,45.000,31712.07665,1.97448,415.173,38.188,45.071,45.001,0.00,0.07,-272.88,-272.92,-10,532,-943,23.2,4.2,-20.5,23.6,4.2,-20.3,0.42,1.88,-16.0,29.8
2016-12-18 01:06:00,0.0,1.97159,0.00045,414.844,0.166,0.1580,0.0026,140.000,45.000,31710.99095,1.97461,415.633,38.188,45.071,45.000,0.00,0.06,-272.89,-272.92,-9,532,-943,23.2,4.2,-20.5,23.6,4.2,-20.3,0.41,1.95,-15.9,29.9
2016-12-18 01:07:00,0.0,1.97152,0.00027,415.338,0.267,0.1573,0.0017,139.998,45.000,31711.95071,1.97462,416.113,38.187,45.071,45.000,0.00,0.06,-272.89,-272.91,-9,532,-943,23.2,4.2,-20.5,23.6,4.2,-20.3,0.41,1.71,-15.9,29.9
2016-12-18 01:08:00,0.0,1.97132,0.00034,415.638,0.367,0.1570,0.0023,139.998,45.000,31713.50624,1.97438,416.430,38.184,45.071,45.000,0.00,0.07,-272.88,-272.91,-10,532,-943,23.2,4.2,-20.5,23.6,4.2,-20.3,0.42,1.81,-15.9,29.9
2016-12-18 01:09:00,0.0,1.97114,0.00039,415.159,0.268,0.1572,0.0020,139.998,45.000,31714.03409,1.97420,415.956,38.181,45.071,45.000,0.00,0.07,-272.88,-272.91,-9,532,-943,23.2,4.2,-20.5,23.6,4.2,-20.2,0.42,1.98,-15.9,29.9
2016-12-18 01:10:00,0.0,1.97126,0.00038,415.231,0.190,0.1578,0.0018,139.999,45.000,31714.41971,1.97434,416.020,38.158,45.071,45.000,0.00,0.07,-272.88,-272.92,-10,532,-943,23.2,4.2,-20.5,23.6,4.2,-20.2,0.41,1.76,-15.9,29.9
2016-12-18 01:11:00,0.0,1.97156,0.00044,414.731,0.335,0.1576,0.0011,140.002,45.000,31713.77751,1.97464,415.516,38.126,45.071,45.000,0.00,0.07,-272.88,-272.92,-10,532,-943,23.2,4.2,-20.5,23.6,4.2,-20.2,0.42,1.75,-15.9,29.9
2016-12-18 01:12:00,0.0,1.97135,0.00036,415.647,0.301,0.1579,0.0017,139.998,45.000,31712.40402,1.97441,416.431,38.125,45.071,45.000,0.00,0.07,-272.88,-272.91,-9,532,-943,23.2,4.2,-20.5,23.6,4.2,-20.2,0.42,1.99,-15.9,29.9
2016-12-18 01:13:00,0.0,1.97142,0.00032,415.315,0.245,0.1582,0.0018,140.002,45.000,31714.59577,1.97450,416.108,38.129,45.071,45.000,0.00,0.07,-272.88,-272.92,-10,532,-943,23.2,4.2,-20.5,23.6,4.2,-20.2,0.41,1.84,-15.9,29.9
2016-12-18 01:14:00,0.0,1.97133,0.00036,416.038,0.308,0.1580,0.0014,140.001,45.000,31715.14068,1.97440,416.817,38.130,45.071,45.000,0.00,0.07,-272.87,-272.93,-9,532,-943,23.2,4.2,-20.5,23.6,4.2,-20.2,0.42,1.71,-15.9,29.9
2016-12-18 01:15:00,0.0,1.97145,0.00045,416.423,0.191,0.1580,0.0018,139.998,45.000,31712.73583,1.97451,417.225,38.126,45.071,45.000,0.00,0.07,-272.88,-272.92,-9,532,-943,23.2,4.2,-20.5,23.6,4.2,-20.2,0.42,1.95,-15.9,29.9
2016-12-18 01:16:00,0.0,1.97144,0.00039,415.602,0.318,0.1578,0.0015,140.001,45.000,31714.00593,1.97454,416.411,38.141,45.071,45.000,0.00,0.07,-272.88,-272.91,-10,532,-943,23.2,4.2,-20.5,23.6,4.2,-20.2,0.41,1.90,-15.9,29.9
2016-12-18 01:17:00,0.0,1.97127,0.00028,414.526,0.279,0.1574,0.0020,140.001,45.000,31715.27039,1.97433,415.329,38.172,45.071,45.000,0.00,0.07,-272.89,-272.92,-9,532,-943,23.2,4.2,-20.5,23.6,4.2,-20.2,0.41,1.70,-15.9,29.9
2016-12-18 01:18:00,0.0,1.97133,0.00044,414.186,0.071,0.1568,0.0019,140.000,45.000,31716.76604,1.97438,414.970,38.186,45.071,45.000,0.00,0.07,-272.88,-272.92,-10,532,-943,23.2,4.2,-20.5,23.6,4.2,-20.2,0.42,1.89,-15.9,29.9
2016-12-18 01:19:00,0.0,1.97135,0.00027,414.502,0.220,0.1568,0.0015,140.001,45.000,31716.04931,1.97440,415.278,38.210,45.070,45.000,0.00,0.07,-272.88,-272.91,-10,532,-943,23.2,4.2,-20.5,23.6,4.2,-20.2,0.41,1.95,-15.9,29.9
2016-12-18 01:20:00,0.0,1.97113,0.00042,414.105,0.237,0.1565,0.0015,139.999,45.000,31716.20650,1.97416,414.902,38.246,45.070,44.999,0.00,0.07,-272.88,-272.92,-9,532,-943,23.2,4.2,-20.6,23.6,4.2,-20.3,0.41,1.72,-15.9,29.9
2016-12-18 01:21:00,0.0,1.97133,0.00033,413.469,0.098,0.1567,0.0019,140.001,45.000,31717.18557,1.97439,414.252,38.249,45.070,44.999,0.00,0.06,-272.88,-272.92,-10,532,-943,23.2,4.2,-20.6,23.6,4.2,-20.3,0.42,1.81,-15.9,29.9
2016-12-18 01:22:00,0.0,1.97127,0.00035,413.912,0.188,0.1566,0.0015,140.001,45.000,31716.74783,1.97431,414.690,38.291,45.070,44.999,0.00,0.07,-272.88,-272.91,-9,532,-943,23.2,4.2,-20.6,23.6,4.2,-20.2,0.42,1.98,-15.9,29.9
2016-12-18 01:23:00,0.0,1.97080,0.00039,413.449,0.274,0.1561,0.0014,140.000,45.000,31718.54459,1.97384,414.243,38.311,45.070,44.999,0.00,0.07,-272.88,-272.92,-9,532,-943,23.2,4.2,-20.6,23.6,4.2,-20.2,0.41,1.77,-15.9,29.9
2016-12-18 01:24:00,0.0,1.97102,0.00031,412.320,0.269,0.1568,0.0014,140.000,45.000,31718.72933,1.97408,413.113,38.313,45.070,44.999,0.00,0.06,-272.88,-272.92,-10,532,-943,23.2,4.2,-20.5,23.6,4.2,-20.3,0.41,1.74,-15.9,29.9
2016-12-18 01:25:00,0.0,1.97098,0.00039,412.067,0.136,0.1573,0.0016,140.002,45.000,31717.73411,1.97402,412.853,38.305,45.070,44.999,0.00,0.06,-272.88,-272.92,-9,532,-943,23.2,4.2,-20.5,23.6,4.2,-20.2,0.41,1.97,-15.9,29.9
2016-12-18 01:26:00,0.0,1.97107,0.00038,412.069,0.199,0.1566,0.0020,139.996,45.000,31715.96767,1.97411,412.838,38.269,45.070,44.999,0.00,0.07,-272.88,-272.91,-9,532,-943,23.2,4.2,-20.5,23.6,4.2,-20.2,0.41,1.85,-15.9,29.9
2016-12-18 01:27:00,0.0,1.97101,0.00040,412.653,0.089,0.1566,0.0017,139.997,45.000,31716.39465,1.97407,413.434,38.249,45.070,45.000,0.00,0.07,-272.89,-272.92,-10,532,-943,23.2,4.2,-20.6,23.6,4.2,-20.3,0.42,1.70,-15.9,29.9
2016-12-18 01:28:00,0.0,1.97126,0.00028,412.344,0.087,0.1559,0.0017,140.001,45.000,31716.32019,1.97428,413.123,38.256,45.070,45.000,0.00,0.07,-272.88,-272.92,-9,532,-943,23.2,4.2,-20.6,23.6,4.2,-20.2,0.42,1.94,-15.9,29.9
2016-12-18 01:29:00,0.0,1.97129,0.00040,412.567,0.219,0.1560,0.0017,140.000,45.000,31716.95037,1.97434,413.331,38.273,45.071,45.000,0.00,0.07,-272.88,-272.91,-10,532,-943,23.2,4.2,-20.5,23.7,4.2,-20.3,0.41,1.91,-15.9,29.9
2016-12-18 01:30:00,0.0,1.97119,0.00031,412.983,0.086,0.1565,0.0014,140.000,45.000,31718.88802,1.97424,413.765,38.309,45.071,45.000,0.00,0.07,-272.88,-272.92,-10,532,-943,23.2,4.2,-20.5,23.7,4.2,-20.3,0.42,1.69,-15.9,29.9
2016-12-18 01:31:00,0.0,1.97133,0.00035,413.788,0.364,0.1559,0.0015,140.001,45.000,31718.63731,1.97437,414.547,38.310,45.071,45.000,0.00,0.06,-272.89,-272.92,-9,532,-943,23.3,4.2,-20.5,23.7,4.2,-20.3,0.42,1.89,-15.9,29.9
2016-12-18 01:32:00,0.0,1.97094,0.00040,413.957,0.117,0.1563,0.0015,140.001,45.000,31722.41413,1.97395,414.743,38.312,45.071,45.000,0.00,0.07,-272.88,-272.91,-10,532,-943,23.3,4.2,-20.5,23.7,4.2,-20.3,0.42,1.95,-15.9,29.9
2016-12-18 01:33:00,0.0,1.97124,0.00034,414.046,0.232,0.1560,0.0016,140.002,45.000,31721.68537,1.97427,414.817,38.303,45.071,45.000,0.00,0.07,-272.88,-272.92,-9,532,-943,23.3,4.2,-20.5,23.7,4.2,-20.3,0.41,1.72,-15.9,29.9
2016-12-18 01:34:00,0.0,1.97096,0.00038,414.915,0.192,0.1560,0.0017,140.000,45.000,31722.65896,1.97400,415.678,38.284,45.071,45.000,0.00,0.06,-272.88,-272.92,-9,532,-943,23.3,4.2,-20.6,23.7,4.2,-20.3,0.42,1.83,-15.9,29.9
2016-12-18 01:35:00,0.0,1.97097,0.00034,414.983,0.310,0.1561,0.0022,140.001,45.000,31722.42822,1.97401,415.782,38.301,45.071,45.000,0.00,0.07,-272.88,-272.91,-10,532,-943,23.3,4.2,-20.6,23.7,4.2,-20.3,0.41,1.98,-15.8,29.9
2016-12-18 01:36:00,0.0,1.97129,0.00039,413.952,0.161,0.1568,0.0018,140.000,45.000,31720.68933,1.97435,414.746,38.314,45.071,45.000,0.00,0.07,-272.88,-272.91,-9,532,-943,23.2,4.2,-20.5,23.7,4.2,-20.3,0.41,1.76,-15.8,29.9
2016-12-18 01:37:00,0.0,1.97087,0.00041,413.476,0.428,0.1566,0.0015,140.001,45.000,31722.55189,1.97393,414.244,38.312,45.071,45.000,0.00,0.07,-272.88,-272.93,-10,532,-943,23.2,4.2,-20.6,23.7,4.2,-20.3,0.41,1.75,-15.8,29.9
2016-12-18 01:38:00,0.0,1.97109,0.00034,413.737,0.404,0.1570,0.0019,140.001,45.000,31722.33815,1.97412,414.542,38.312,45.070,45.000,0.00,0.07,-272.88,-272.92,-10,532,-943,23.2,4.2,-20.5,23.7,4.2,-20.2,0.42,1.98,-15.9,29.9
2016-12-18 01:39:00,0.0,1.97131,0.00038,413.388,0.210,0.1564,0.0012,140.001,45.000,31721.28941,1.97435,414.159,38.312,45.070,45.000,0.00,0.07,-272.88,-272.91,-9,532,-943,23.2,4.2,-20.5,23.7,4.2,-20.2,0.41,1.84,-15.8,29.9
2016-12-18 01:40:00,0.0,1.97163,0.00031,413.129,0.426,0.1563,0.0017,140.000,45.000,31720.41249,1.97465,413.928,38.314,45.070,45.000,0.00,0.07,-272.88,-272.92,-10,532,-943,23.3,4.2,-20.5,23.7,4.2,-20.3,0.41,1.71,-15.8,29.9
2016-12-18 01:41:00,0.0,1.97191,0.00031,412.231,0.199,0.1564,0.0019,139.999,45.000,31719.30030,1.97498,413.020,38.320,45.070,45.000,0.00,0.07,-272.88,-272.93,-10,532,-943,23.3,4.2,-20.6,23.7,4.2,-20.3,0.41,1.93,-15.8,29.9
2016-12-18 01:42:00,0.0,1.97165,0.00037,411.740,0.038,0.1559,0.0016,139.999,45.000,31719.59790,1.97469,412.515,38.332,45.070,45.000,0.00,0.07,-272.88,-272.92,-9,532,-943,23.3,4.2,-20.6,23.7,4.2,-20.3,0.41,1.90,-15.8,30.0
2016-12-18 01:43:00,0.0,1.97133,0.00035,411.897,0.061,0.1561,0.0015,140.000,45.000,31720.59099,1.97438,412.672,38.317,45.070,45.000,0.00,0.07,-272.88,-272.91,-10,532,-943,23.3,4.2,-20.6,23.7,4.2,-20.3,0.41,1.69,-15.8,30.0
2016-12-18 01:44:00,0.0,1.97110,0.00036,412.319,0.405,0.1564,0.0017,140.004,45.000,31722.92791,1.97413,413.077,38.325,45.070,45.000,0.00,0.06,-272.89,-272.92,-9,532,-943,23.3,4.2,-20.5,23.7,4.2,-20.3,0.42,1.88,-15.8,30.0
2016-12-18 01:45:00,0.0,1.97115,0.00028,413.198,0.136,0.1572,0.0017,139.999,45.000,31721.82002,1.97421,413.981,38.317,45.070,45.000,0.00,0.07,-272.89,-272.91,-9,532,-943,23.3,4.2,-20.5,23.7,4.2,-20.3,0.41,1.95,-15.8,29.9